Regional Weather Roundup
Issued by NWS

Home | Current Version | Previous Version | Graphics & Text | Print | Product List | Glossary On
Versions: 1 2 3 4 5 6 7 8 9 10 11 12 13 14 15 16 17 18 19 20 21 22 23 24 25 26 27 28 29 30 31 32 33 34 35 36 37 38 39 40 41 42 43 44 45 46 47 48 49 50
000
ASUS43 KLOT 310604
RWRIL

ILLINOIS REGIONAL WEATHER ROUNDUP
NATIONAL WEATHER SERVICE CHICAGO/ROMEOVILLE IL
100 AM CDT WED AUG 31 2016

NOTE: "FAIR" INDICATES FEW OR NO CLOUDS BELOW 12,000 FEET WITH NO
SIGNIFICANT WEATHER AND/OR OBSTRUCTIONS TO VISIBILITY.

* THESE STATIONS ARE NOT UNDER NWS QUALITY CONTROL. THEY ALSO MAY NOT
  REPORT WEATHER SUCH AS PRECIPITATION OR FOG.

ILZ001-002-007-009-015-016-024-310700-
NORTHWEST ILLINOIS

CITY           SKY/WX    TMP DP  RH WIND       PRES   REMARKS
MOLINE         FAIR      72  70  93 CALM      30.09R
6HR MIN TEMP:  72; 6HR MAX TEMP:  75; 6HR PCP: TRACE;

STERLING*      FAIR      71  70  96 W5        30.09S
SAVANNA*       FAIR      69  69  98 CALM      30.09S
$$

ILZ003-004-008-010-011-017-018-310700-
NORTH CENTRAL ILLINOIS

CITY           SKY/WX    TMP DP  RH WIND       PRES   REMARKS
ROCKFORD       MOCLDY    71  68  90 CALM      30.09S
6HR MIN TEMP:  70; 6HR MAX TEMP:  74;

FREEPORT*      CLOUDY    67  66  97 NW5       30.11S
ROCHELLE*      FAIR      67  67 100 CALM      30.09S FOG
$$

ILZ005-006-012>014-019>023-310700-
NORTHEAST ILLINOIS

CITY           SKY/WX    TMP DP  RH WIND       PRES   REMARKS
CHICAGO-OHARE  MOCLDY    72  67  84 W3        30.04F
6HR MIN TEMP:  72; 6HR MAX TEMP:  77;

CHICAGO-MIDWAY CLOUDY    75  68  78 NW3       30.04F
6HR MIN TEMP:  74; 6HR MAX TEMP:  80;

AURORA         FAIR      68  66  93 CALM      30.06F FOG
6HR MIN TEMP:  68; 6HR MAX TEMP:  74;

LANSING*       FAIR      73  71  94 CALM      30.05S
JOLIET*        FAIR      73  70  92 CALM      30.06S
WAUKEGAN       FAIR      71  68  90 W3        30.04F
6HR MIN TEMP:  70; 6HR MAX TEMP:  72;

DUPAGE AIRPORT FAIR      70  66  87 NW3       30.05F
6HR MIN TEMP:  70; 6HR MAX TEMP:  75;

KANKAKEE*      CLOUDY    72  71  95 NW3       30.06S
WHEELING       FAIR      72  67  84 NW5       30.06S
6HR MIN TEMP:  71; 6HR MAX TEMP:  76;

MORRIS*        FAIR      70  68  93 CALM      30.05R
ROMEOVILLE*    FAIR      70  69  98 N3        30.06S
NORTHERLY ISL    N/A     74  65  73 W2          N/A
$$

LMZ740>746-310700-
SOUTHERN LAKE MICHIGAN

STATION/POSITION SKY/WX   TEMP    WIND        PRES    VSBY  WAVE
                          AIR SEA DIR/SP/G                  HT/PER
                          (F)     (DEG/KT/KT) (MB)    (MI)  (FT/S)
SOUTHERN BUOY              74 75  240/  6/  8 1016.7          1
WILMETTE HARBOR            72 74  280/  2/  4   N/A           0
HARRISON CRIB              74     330/  4/  4   N/A
BURNHAM HARBOR             74     290/  2/  4   N/A
CALUMET HARBOR             73     340/  2/  3 1017.2F
BURNS HARBOR               74     340/  3/  4 1017.9S
MICHIGAN CITY              72     340/  1/  2   N/A
MICHIGAN CITY 6N           74 74  350/  4/  6   N/A           1
ST. JOSEPH                 73 74   CALM  /  2 1017.1F         1
$$

ILZ025>027-034>036-040-047-049-050-058-095>099-310700-
WEST-CENTRAL ILLINOIS

CITY           SKY/WX    TMP DP  RH WIND       PRES   REMARKS
QUINCY         PTCLDY    72  71  97 W3        30.09S FOG
GALESBURG*     CLOUDY    71  70  96 CALM      30.09S
MACOMB*        CLOUDY    71  70  98 NW5       30.10S
JACKSONVILLE*  CLOUDY    69  69  97 SW3       30.08S FOG
PITTSFIELD*    MOCLDY    70  69  98 CALM      30.11S
$$

ILZ028>032-037-038-041>044-048-051>054-059>061-310700-
CENTRAL ILLINOIS

CITY           SKY/WX    TMP DP  RH WIND       PRES   REMARKS
PONTIAC        FOG       72  72 100 CALM      30.07S VSB 1/2
BLOOMINGTON    PTCLDY    73  72  96 W6        30.08F
DECATUR        MOCLDY    74  70  87 CALM      30.07F
PEORIA         CLOUDY    73  73 100 NW3       30.07S
6HR MIN TEMP:  73; 6HR MAX TEMP:  80;

LACON*         CLOUDY    71  70  97 CALM      30.06S
LINCOLN*       CLOUDY    73  72  99 CALM      30.07S
SPRINGFIELD    CLOUDY    71  69  93 SW3       30.08S
6HR MIN TEMP:  71; 6HR MAX TEMP:  79;

TAYLORVILLE    FOG       69  69 100 CALM      30.08S VSB 1/4
6HR MIN TEMP:  68; 6HR MAX TEMP:  75;

$$

ILZ033-039-045-046-055>057-062-063-310700-
EAST-CENTRAL ILLINOIS

CITY           SKY/WX    TMP DP  RH WIND       PRES   REMARKS
CHAMPAIGN      PTCLDY    71  70  96 CALM      30.07S
RANTOUL*       CLOUDY    73  72  98 CALM      30.06F FOG
MATTOON        PTCLDY    70  68  93 NW5       30.06S
PARIS*         CLOUDY    71  71  99 CALM      30.07S
$$

ILZ079-100>102-310700-
SOUTHWEST ILLINOIS

CITY           SKY/WX    TMP DP  RH WIND       PRES   REMARKS
ALTON          FOG       70  70  99 CALM      30.09S VSB 1/4
BELLEVILLE     PTCLDY    71  71 100 W2        30.07S
CAHOKIA*       MOCLDY    72  70  93 W3        30.09R FOG
SPARTA*        CLEAR     71  70  98 CALM      30.09S FOG
$$

ILZ064>066-069>071-074>076-080>082-084>086-088>090-092>094-310700-
SOUTH-CENTRAL ILLINOIS

CITY           SKY/WX    TMP DP  RH WIND       PRES   REMARKS
CARBONDALE     CLEAR     71  69  93 CALM      30.07S
6HR MIN TEMP:  70; 6HR MAX TEMP:  82;

EFFINGHAM*     PTCLDY    71  71 100 CALM      30.08S FOG
MARION         CLEAR     73  72  94 CALM      30.08R
MT. VERNON     MOCLDY    73  68  83 CALM      30.08S
CENTRALIA*     CLOUDY    72  72 100 CALM      30.07S FOG
SALEM*         PTCLDY    73  71  94 CALM      30.08R FOG
METROPOLIS*    CLEAR     75  73  92 CALM      30.05S
$$

ILZ067-068-072-073-078-083-087-091-310700-
SOUTHEAST ILLINOIS

CITY           SKY/WX    TMP DP  RH WIND       PRES   REMARKS
LAWRENCEVILLE  CLOUDY    74  74 100 CALM      30.05F
FLORA*         CLOUDY    75  72  92 N3        30.06F
FAIRFIELD*       N/A     73  72  96 CALM      30.05S
HARRISBURG*    CLEAR     75  73  95 CALM      30.06R
ROBINSON*      CLOUDY    70  70 100 CALM      30.06F FOG
CARMI*         CLEAR     73  72  98 NW3       30.05S
$$

ABBREVIATIONS USED IN REMARKS
   TC - TEMPERATURE IN CELSIUS
  WCI - WIND CHILL INDEX
   HX - HEAT INDEX
  VSB - VISIBILITY
$$




USA.gov is the U.S. government's official web portal to all federal, state and local government web resources and services.